• In Russia
  • List of Countries
  • For 7 days
  • Water Temperature
  • Satellite Maps
  • Weather Map
  • Weather Widgets
  • user-avatar
    Login

    Hourly Weather Jankowice

    Today, 17 August, Friday

    Time Temperature Precipitation Wind Pressure Humidity
    00:00 +20°C° 0 mm 2 mps 754 mmHg 63%
    01:00 +19°C° 0 mm 3 mps 754 mmHg 64%
    02:00 +19°C° 0 mm 3 mps 754 mmHg 66%
    03:00 +18°C° 0 mm 3 mps 754 mmHg 67%
    04:00 +18°C° 0 mm 3 mps 754 mmHg 69%
    05:00 +19°C° 0 mm 3 mps 754 mmHg 68%
    06:00 +20°C° 0 mm 3 mps 754 mmHg 67%
    07:00 +21°C° 0 mm 3 mps 754 mmHg 66%
    08:00 +23°C° 0 mm 4 mps 754 mmHg 61%
    09:00 +26°C° 0 mm 4 mps 754 mmHg 55%
    10:00 +28°C° 0 mm 4 mps 754 mmHg 49%
    11:00 +29°C° 0 mm 4 mps 754 mmHg 46%
    12:00 +29°C° 0 mm 3 mps 754 mmHg 43%
    13:00 +30°C° 0 mm 3 mps 753 mmHg 40%
    14:00 +30°C° 0 mm 2 mps 753 mmHg 40%
    15:00 +30°C° 0 mm 2 mps 753 mmHg 39%
    16:00 +31°C° 0 mm 2 mps 753 mmHg 38%
    17:00 +29°C° 0 mm 2 mps 753 mmHg 43%
    18:00 +27°C° 0 mm 2 mps 753 mmHg 48%
    19:00 +26°C° 0 mm 2 mps 753 mmHg 54%
    20:00 +25°C° 0 mm 2 mps 753 mmHg 55%
    21:00 +24°C° 0 mm 2 mps 753 mmHg 57%
    22:00 +23°C° 0 mm 2 mps 754 mmHg 58%
    23:00 +23°C° 0.1 mm 2 mps 754 mmHg 63%

    Tomorrow, 18 August, Saturday

    Time Temperature Precipitation Wind Pressure Humidity
    00:00 +21°C° 0.1 mm 2 mps 754 mmHg 68%
    01:00 +20°C° 0.1 mm 2 mps 754 mmHg 73%
    02:00 +21°C° 0.1 mm 1 mps 755 mmHg 75%
    03:00 +21°C° 0.1 mm 1 mps 755 mmHg 78%
    04:00 +20°C° 0.1 mm 1 mps 755 mmHg 80%
    05:00 +20°C° 0 mm 2 mps 755 mmHg 80%
    06:00 +20°C° 0 mm 2 mps 756 mmHg 80%
    07:00 +21°C° 0 mm 3 mps 756 mmHg 80%
    08:00 +22°C° 0.1 mm 3 mps 756 mmHg 74%
    09:00 +25°C° 0.1 mm 3 mps 756 mmHg 68%
    10:00 +26°C° 0.1 mm 3 mps 757 mmHg 62%
    11:00 +27°C° 0.5 mm 3 mps 757 mmHg 57%
    12:00 +28°C° 0.5 mm 3 mps 757 mmHg 53%
    13:00 +29°C° 0.5 mm 3 mps 757 mmHg 49%
    14:00 +29°C° 0 mm 3 mps 756 mmHg 48%
    15:00 +29°C° 0 mm 3 mps 756 mmHg 47%
    16:00 +29°C° 0 mm 3 mps 756 mmHg 47%
    17:00 +27°C° 0 mm 2 mps 756 mmHg 51%
    18:00 +26°C° 0 mm 2 mps 756 mmHg 55%
    19:00 +25°C° 0 mm 2 mps 756 mmHg 59%
    20:00 +24°C° 0 mm 2 mps 757 mmHg 61%
    21:00 +21°C° 0 mm 2 mps 757 mmHg 63%
    22:00 +20°C° 0 mm 2 mps 757 mmHg 65%
    23:00 +20°C° 0 mm 2 mps 758 mmHg 65%

    Day after tomorrow, 19 August, Sunday

    Time Temperature Precipitation Wind Pressure Humidity
    00:00 +20°C° 0 mm 2 mps 758 mmHg 66%
    01:00 +19°C° 0 mm 2 mps 758 mmHg 66%
    02:00 +19°C° 0 mm 2 mps 758 mmHg 69%
    03:00 +19°C° 0 mm 1 mps 758 mmHg 72%
    04:00 +19°C° 0 mm 1 mps 757 mmHg 76%
    05:00 +20°C° 0 mm 1 mps 758 mmHg 73%
    06:00 +21°C° 0 mm 1 mps 758 mmHg 71%
    07:00 +22°C° 0 mm 1 mps 758 mmHg 68%
    08:00 +24°C° 0 mm 1 mps 758 mmHg 60%
    09:00 +25°C° 0 mm 1 mps 758 mmHg 51%
    10:00 +27°C° 0 mm 1 mps 758 mmHg 43%
    11:00 +28°C° 0 mm 1 mps 758 mmHg 40%
    12:00 +29°C° 0 mm 2 mps 757 mmHg 37%
    13:00 +29°C° 0 mm 2 mps 757 mmHg 34%
    14:00 +30°C° 0 mm 2 mps 757 mmHg 34%
    15:00 +30°C° 0 mm 2 mps 757 mmHg 33%
    16:00 +30°C° 0 mm 1 mps 756 mmHg 33%
    17:00 +28°C° 0 mm 1 mps 756 mmHg 38%
    18:00 +27°C° 0 mm 1 mps 756 mmHg 42%
    19:00 +25°C° 0 mm 1 mps 756 mmHg 47%
    20:00 +24°C° 0 mm 1 mps 756 mmHg 49%
    21:00 +23°C° 0 mm 1 mps 756 mmHg 51%
    22:00 +23°C° 0 mm 1 mps 756 mmHg 53%
    23:00 +22°C° 0 mm 1 mps 756 mmHg 55%

    20 August, Monday

    Time Temperature Precipitation Wind Pressure Humidity
    00:00 +22°C° 0 mm 1 mps 756 mmHg 57%
    01:00 +21°C° 0 mm 1 mps 756 mmHg 58%
    02:00 +21°C° 0 mm 1 mps 755 mmHg 60%
    03:00 +21°C° 0 mm 1 mps 755 mmHg 61%
    04:00 +20°C° 0 mm 1 mps 755 mmHg 63%
    05:00 +21°C° 0 mm 1 mps 755 mmHg 61%
    06:00 +22°C° 0 mm 1 mps 755 mmHg 59%
    07:00 +24°C° 0 mm 1 mps 755 mmHg 58%
    08:00 +25°C° 0 mm 1 mps 755 mmHg 52%
    09:00 +27°C° 0 mm 1 mps 755 mmHg 46%
    10:00 +29°C° 0 mm 1 mps 755 mmHg 40%
    11:00 +30°C° 0 mm 2 mps 755 mmHg 38%
    12:00 +31°C° 0 mm 2 mps 755 mmHg 35%
    13:00 +31°C° 0 mm 2 mps 754 mmHg 33%
    14:00 +31°C° 0 mm 2 mps 754 mmHg 33%
    15:00 +31°C° 0 mm 2 mps 754 mmHg 33%
    16:00 +32°C° 0 mm 1 mps 753 mmHg 33%
    17:00 +30°C° 0 mm 1 mps 753 mmHg 37%
    18:00 +29°C° 0 mm 1 mps 753 mmHg 41%
    19:00 +27°C° 0 mm 1 mps 753 mmHg 45%
    20:00 +27°C° 0 mm 1 mps 753 mmHg 47%
    21:00 +26°C° 0 mm 1 mps 754 mmHg 48%
    22:00 +26°C° 0 mm 1 mps 754 mmHg 50%
    23:00 +25°C° 0 mm 1 mps 754 mmHg 53%

    21 August, Tuesday

    Time Temperature Precipitation Wind Pressure Humidity
    00:00 +24°C° 0 mm 2 mps 754 mmHg 56%
    01:00 +24°C° 0 mm 2 mps 754 mmHg 59%
    02:00 +23°C° 0 mm 2 mps 754 mmHg 63%
    03:00 +23°C° 0 mm 2 mps 754 mmHg 66%
    04:00 +21°C° 0 mm 2 mps 754 mmHg 69%
    05:00 +22°C° 0 mm 3 mps 754 mmHg 70%
    06:00 +22°C° 0 mm 3 mps 754 mmHg 70%
    07:00 +22°C° 0 mm 4 mps 755 mmHg 71%
    08:00 +23°C° 0 mm 4 mps 755 mmHg 66%
    09:00 +25°C° 0 mm 4 mps 755 mmHg 62%
    10:00 +26°C° 0 mm 4 mps 755 mmHg 58%
    11:00 +27°C° 0 mm 4 mps 755 mmHg 55%
    12:00 +28°C° 0 mm 5 mps 755 mmHg 52%
    13:00 +28°C° 0 mm 5 mps 755 mmHg 48%
    14:00 +28°C° 0 mm 4 mps 755 mmHg 47%
    15:00 +28°C° 0 mm 4 mps 755 mmHg 45%
    16:00 +28°C° 0 mm 4 mps 755 mmHg 43%
    17:00 +27°C° 0 mm 3 mps 755 mmHg 46%
    18:00 +25°C° 0 mm 3 mps 755 mmHg 50%
    19:00 +24°C° 0 mm 2 mps 755 mmHg 54%
    20:00 +23°C° 0 mm 2 mps 755 mmHg 56%
    21:00 +22°C° 0 mm 1 mps 756 mmHg 58%
    22:00 +21°C° 0 mm 1 mps 756 mmHg 60%
    23:00 +20°C° 0 mm 1 mps 756 mmHg 61%

    22 August, Wednesday

    Time Temperature Precipitation Wind Pressure Humidity
    00:00 +20°C° 0 mm 1 mps 756 mmHg 62%
    01:00 +20°C° 0 mm 1 mps 756 mmHg 63%
    02:00 +19°C° 0 mm 1 mps 756 mmHg 64%
    03:00 +18°C° 0 mm 2 mps 756 mmHg 65%
    04:00 +18°C° 0 mm 2 mps 756 mmHg 66%
    05:00 +19°C° 0 mm 2 mps 756 mmHg 64%
    06:00 +20°C° 0 mm 2 mps 756 mmHg 63%
    07:00 +21°C° 0 mm 2 mps 756 mmHg 62%
    08:00 +24°C° 0 mm 2 mps 756 mmHg 56%
    09:00 +26°C° 0 mm 3 mps 756 mmHg 51%
    10:00 +28°C° 0 mm 3 mps 756 mmHg 46%
    11:00 +28°C° 0 mm 3 mps 755 mmHg 45%
    12:00 +29°C° 0 mm 3 mps 755 mmHg 43%
    13:00 +29°C° 0 mm 2 mps 755 mmHg 42%
    14:00 +29°C° 0 mm 2 mps 755 mmHg 43%
    15:00 +29°C° 0 mm 2 mps 755 mmHg 44%
    16:00 +29°C° 0 mm 2 mps 754 mmHg 45%
    17:00 +28°C° 0 mm 2 mps 754 mmHg 51%
    18:00 +26°C° 0 mm 2 mps 754 mmHg 58%
    19:00 +25°C° 0 mm 2 mps 755 mmHg 64%
    20:00 +24°C° 0 mm 2 mps 755 mmHg 69%
    21:00 +23°C° 0 mm 2 mps 755 mmHg 73%
    22:00 +21°C° 0 mm 2 mps 755 mmHg 78%
    23:00 +20°C° 0 mm 2 mps 755 mmHg 79%
    Show more